Regional Weather Roundup
Issued by NWS Newport/Morehead, NC

Current Version | Previous Version | Graphics & Text | Print | Product List | Glossary On
Versions: 1 2 3 4 5 6 7 8 9 10 11 12 13 14 15 16 17 18 19 20 21 22 23 24 25 26 27 28 29 30 31 32 33 34 35 36 37 38 39 40 41 42 43 44 45 46 47 48 49 50
000 ASUS42 KMHX 060824 RWRMHX WEATHER ROUNDUP FOR EASTERN NORTH CAROLINA NATIONAL WEATHER SERVICE NEWPORT/MOREHEAD CITY NC 300 AM EST TUE DEC 06 2016 NOTE: "FAIR" INDICATES FEW OR NO CLOUDS BELOW 12,000 FEET WITH NO SIGNIFICANT WEATHER AND/OR OBSTRUCTIONS TO VISIBILITY NCZ015>017-031-032-045>047-102-103-060900- NORTH COAST CITY SKY/WX TMP DP RH WIND PRES REMARKS EDENTON NOT AVBL ELIZABETH CITY LGT RAIN 48 45 89 NW3 30.11R KITTY HAWK NOT AVBL MANTEO NOT AVBL $$ NCZ045>047-081-094-103-104-060900- CENTRAL COAST CITY SKY/WX TMP DP RH WIND PRES REMARKS FRISCO LGT RAIN 52 50 93 NE7 30.05S $$ NCZ095-097-098-100-101-060900- SOUTHERN COAST CITY SKY/WX TMP DP RH WIND PRES REMARKS BEAUFORT LGT RAIN 51 49 92 NE7G18 30.03S FOG CEDAR ISLAND NOT AVBL JACKSONVILLE CLOUDY 48 47 96 N8 30.03F FOG PINEY ISLAND LGT RAIN N/A N/A N/A NE12 30.04S WILMINGTON RAIN 47 47 100 N13 30.01F FOG $$ NCZ011>013-027>030-043-044-078>080-089-090>093-098-060900- COASTAL PLAIN CITY SKY/WX TMP DP RH WIND PRES REMARKS AHOSKIE NOT AVBL CLINTON NOT AVBL ELIZABETHTOWN NOT AVBL GOLDSBORO LGT RAIN 48 48 100 NE7 30.03F GREENVILLE NOT AVBL HAVELOCK LGT RAIN 50 47 89 NE13 30.05R KENANSVILLE NOT AVBL KINSTON NOT AVBL NEW BERN RAIN 48 45 89 NE7 30.06S RICHLANDS RAIN 46 45 96 N7 30.04F ROCKY MOUNT LGT RAIN 46 46 100 NE5 30.07F WASHINGTON NOT AVBL WHITEVILLE NOT AVBL $$ AMZ130-135-150-152-154-156-158-170-250-252-270-ANZ085-086-088-633-658-670-060900- MARINE OBSERVATIONS STATION/POSITION TIME TEMP WIND PRES WAVE SWELL AIR SEA DIR/SP/G HT/PER HT/PER (UTC) (F) (DEG/KT/KT) (MB) (FT/S) (FT/S) CHESAPEAKE LIGHT NOT AVBL 64 E VA BEACH 0750 55 60 50/ 17/ 19 1017.2 6/ 8 3/ 8 DUCK 0800 53 54 60/ 10/ 12 1018.7 2 E DUCK NOT AVBL OREGON INLET 0800 53 56 30/ 11/ 15 1018.1 13E OREGON INLT NOT AVBL HATTERAS CG 0800 53 60 30/ 11/ 14 1017.1 DIAMOND BUOY 0750 60 76 30/ 17/ 19 1016.5 5/ 9 3/ 9 CAPE LOOKOUT 0800 52 20/ 15/ 20 1016.2 BEAUFORT LAB 0800 50 56 20/ 11/ 15 1015.7 30 SE NEW RVR IN 0808 54 70 50/ 19/ 25 1014.7 30 SE NEW RVR IN NOT AVBL 27 SE WRIGHTSVLE 0808 59 67 70/ 21/ 27 1014.4 5 SE WRIGHTSVLE 0808 50 62 50/ 16/ 27 1014.3 225 S CAPE HAT 0750 74 74 210/ 16/ 21 1013.7 6/ 7 2/10 41 SE CHARLESTON 0750 69 74 50/ 21/ 25 1010.1 5/ 6 2/11 $$

USA.gov is the U.S. government's official web portal to all federal, state and local government web resources and services.